Location: Unspecified
(0.0000°N, 0.0000°E)
Time: 00:59:07
(UTC+00:00)

Courier 1B Rocket - Pass Details

Date: 02 October 2020
Orbit: 920 x 1202 km, 28.2° (Epoch: 25 October)

Event Time Altitude Azimuth Distance (km) Brightness Sun altitude
Exits shadow 04:05:05 14° 347° (NNW) 2,455 6.9 -26.0°
Drops below altitude 10° 04:07:16 10° 7° (N) 2,700 7.3 -25.5°
Sets 04:11:15 0° 31° (NNE) 3,598 8.3 -24.5°
